Kosmos-1563

operational
NORAD ID: 15002 Int'l Des: 1984-052 Owner: GUKOS Country: SU
LEOCIRCULAR

关于 Kosmos-1563

正在加载描述...

实时位置

正在加载3D地球...

即将过境

高度历史

Altitude vs Time

uPlot chart will show altitude changes over time

两行轨道根数

1 15002U 84052E 26062.61931781 -.00000026 00000-0 -62393-4 0 9996
2 15002 74.0142 25.2569 0024850 191.7589 280.7596 12.51838350640997
Epoch: Mar 3, 2026 • Age: 24 hours

当前状态

高度 1477.9 km
速度 7.12 km/s
星下点 13.63°N, 131.99°W
发射日期 May 28, 1984
运行时间 41.7 years
类型 other

技术详情

分类 Payload
质量 60.00 kg
干质量 60.00 kg
总质量 60.00 kg
长度 0.80 m
直径 0.80 m
跨度 0.80 m
形状 Poly
制造商 NPOPM
平台类型 Strela-1 11F625
阶段状态 In Orbit
所有者/国家 GUKOS/SU

大型星座

Loading constellations...